Temp
24 24 25 25 25 25 25 25 25 26 26 26 26 26 26 26 26 26 25 25 25 25 25 25 25 24 24 24 24 24 24 24 24 24 24 24 25 25 24 25 25 25
24 24 25 25 25 25 25 25 26 26 26 26 26 26 26 26 26 26 26 25 25 25 25 25 25 25 24 24 24 24 24 24 24 24 24 24 25 25 25 24 25 25
24 24 24 25 25 25 25 25 25 26 26 26 26 26 26 26 26 26 26 26 25 25 25 25 25 25 24 24 24 24 24 24 24 24 24 24 24 24 25 24 24 25
24 24 24 25 25 25 25 25 25 25 26 26 26 26 26 26 26 26 26 26 26 25 25 25 25 25 25 24 24 24 24 24 25 24 24 24 24 24 25 25 24 24
24 24 24 24 25 25 25 25 25 25 25 26 26 26 26 26 26 26 26 26 26 26 25 25 25 25 25 24 24 24 24 24 25 25 25 24 24 24 24 25 24 24
24 24 24 24 24 24 25 25 25 25 25 26 26 26 26 26 26 26 26 26 26 26 25 25 25 25 25 25 24 24 24 24 24 25 25 25 24 24 24 24 24 24
24 24 24 24 24 24 24 25 25 25 25 25 25 26 26 26 26 26 26 26 26 26 25 25 25 25 25 25 25 24 24 24 24 25 25 25 24 24 24 24 24 24
24 24 24 24 24 24 24 24 24 25 25 25 25 25 26 26 26 26 26 26 26 26 25 25 25 25 25 25 25 25 25 24 24 24 24 24 24 24 24 24 24 24
24 24 24 24 24 24 24 24 24 25 25 25 25 25 25 26 26 26 26 26 26 25 25 25 25 25 25 25 25 25 25 24 24 24 24 24 24 24 24 24 24 24
24 24 24 24 24 24 24 24 24 25 25 25 25 25 25 25 26 26 26 26 26 25 25 25 25 25 25 25 25 25 25 25 24 24 24 24 24 24 24 24 24 24
24 24 24 24 24 24 24 24 24 24 25 25 25 25 25 25 25 25 25 26 26 26 26 25 25 25 25 25 25 25 25 25 25 24 24 24 24 24 24 24 24 24
24 24 24 24 24 24 24 24 24 24 25 25 25 25 25 25 25 25 25 25 26 26 26 26 25 25 25 25 25 25 25 25 25 25 24 24 24 24 24 24 24 25
25 25 25 25 24 24 24 24 24 25 25 25 25 25 25 25 25 25 25 25 26 26 26 26 26 25 25 25 25 25 24 24 24 24 24 24 24 24 24 24 24 25
25 25 25 25 25 25 25 25 25 25 25 25 25 25 25 25 25 25 25 25 25 26 26 26 25 25 25 25 25 25 24 24 24 24 24 24 24 24 24 24 24 24
25 25 25 25 25 25 25 25 25 25 25 25 25 25 25 25 25 25 25 25 25 25 26 26 25 25 25 25 25 25 25 24 24 24 24 24 24 24 24 24 24 24
26 25 25 25 25 25 25 25 25 25 25 25 25 25 25 25 25 26 26 25 25 25 25 25 25 25 26 26 26 25 25 25 24 24 24 24 24 24 24 24 24 24
26 26 25 25 25 25 25 25 25 25 25 25 25 25 25 25 26 26 26 26 26 25 25 25 25 25 26 26 26 26 25 25 25 24 24 24 24 23 23 24 24 24
26 26 26 26 25 25 25 25 25 25 25 25 25 25 26 26 26 26 26 26 26 26 26 25 25 26 26 26 26 26 26 25 25 25 24 24 24 24 24 24 24 24
27 26 26 26 26 25 25 25 25 25 25 25 25 26 26 26 26 26 26 26 26 26 26 26 26 26 26 26 26 26 26 25 25 25 25 24 24 24 24 24 24 24
27 27 26 26 26 26 26 25 25 25 25 25 26 26 26 26 26 26 26 26 26 26 26 26 26 26 26 26 26 26 26 26 25 25 25 25 25 24 24 24 24 24
27 27 27 26 26 26 26 26 25 25 25 25 26 26 26 26 26 26 26 26 26 26 26 26 26 26 26 26 26 26 26 26 26 25 25 25 25 25 25 24 24 24
27 27 27 27 26 26 26 26 26 26 26 26 26 26 26 26 26 26 26 26 26 26 26 26 27 27 27 27 27 27 26 26 26 25 25 25 25 25 25 25 25 24
28 28 27 27 27 26 26 26 26 26 26 26 26 26 26 26 26 26 26 26 26 26 26 26 27 27 27 27 27 27 26 26 26 25 25 25 25 25 25 25 25 25
28 28 28 27 27 27 26 26 26 26 26 26 26 26 26 26 27 27 27 27 27 26 26 26 26 27 27 27 27 27 26 26 26 25 25 25 25 25 25 25 25 25
29 29 28 28 27 27 27 27 27 26 26 26 26 26 26 27 27 27 27 27 27 27 27 27 26 27 27 27 27 27 27 26 26 25 24 24 25 25 25 25 25 25
29 29 28 28 28 28 27 27 27 27 27 26 26 26 26 27 27 27 27 27 27 27 27 27 27 27 27 27 27 27 27 27 26 25 25 24 25 25 25 25 25 25
Height
796 798 800 802 804 805 808 810 812 814 816 818 819 821 822 824 826 828 830 831 833 834 836 838 839 840 842 843 844 845 846 846 846 847 848 848 849 849 850 850 851 851
793 795 798 800 802 804 806 808 810 812 814 816 817 819 821 823 825 827 828 830 831 833 834 836 838 839 840 842 843 844 844 845 845 846 847 847 848 848 848 849 850 850
791 793 796 797 799 801 804 806 808 810 812 814 815 817 819 821 823 825 827 828 829 831 832 834 836 837 839 840 841 842 843 843 844 845 845 846 846 847 847 848 849 849
788 791 793 794 796 799 801 804 806 808 810 811 813 815 817 819 822 823 825 826 828 829 831 832 834 835 837 838 839 840 841 842 842 843 844 844 845 845 846 847 847 848
785 788 790 792 794 796 799 801 803 805 807 809 811 813 815 817 819 821 823 824 826 827 829 830 832 833 834 836 837 838 839 839 840 841 842 842 843 844 844 845 845 846
783 786 788 790 792 795 797 797 799 802 803 806 808 810 812 814 817 818 820 822 823 825 826 828 829 830 832 833 834 835 836 837 838 839 839 839 840 841 842 843 843 844
780 782 785 788 791 793 794 795 797 798 800 803 805 808 810 812 814 816 817 819 821 822 824 825 826 828 829 830 831 832 833 834 835 836 837 837 838 839 840 840 841 841
776 779 782 785 788 791 792 794 795 796 798 801 803 805 807 809 811 813 815 817 818 820 821 822 823 824 826 827 828 829 830 831 832 833 834 834 835 836 836 837 838 838
773 776 779 781 784 787 789 791 793 795 797 798 800 802 804 806 808 810 812 814 815 817 817 819 820 821 822 824 824 826 827 828 829 830 831 831 832 832 833 834 835 835
769 772 775 777 779 782 785 788 790 793 795 796 798 800 801 803 805 807 809 811 812 813 814 815 816 817 819 820 821 823 824 825 826 826 827 828 828 828 829 830 831 832
765 768 770 772 775 778 781 784 787 790 792 793 795 797 798 800 802 804 806 807 808 809 810 811 812 814 816 817 818 820 821 821 822 823 823 824 824 825 825 826 827 827
760 763 765 768 771 774 777 780 783 786 788 790 791 793 795 797 798 800 801 802 803 804 806 807 808 810 812 813 815 816 817 818 819 819 820 820 821 821 822 823 823 824
756 758 760 763 766 770 773 776 779 782 784 786 788 790 792 793 794 796 797 798 799 800 802 803 805 807 808 810 811 812 814 815 815 816 817 817 818 818 819 820 820 821
751 754 756 759 762 766 769 772 775 778 780 782 784 786 787 789 790 791 793 794 795 797 798 800 802 803 805 806 807 809 810 811 812 813 813 814 815 815 816 817 817 819
748 751 753 756 759 762 765 768 771 774 777 779 781 782 783 785 786 788 789 791 792 793 795 797 798 799 800 802 803 805 806 807 807 809 809 811 811 812 813 814 815 816
745 748 750 753 755 758 761 764 767 771 773 775 777 778 779 781 783 785 786 787 788 789 791 793 794 794 796 797 798 800 801 803 804 805 806 807 808 809 810 811 812 813
741 744 746 749 751 754 757 760 763 767 769 771 773 774 776 777 779 780 781 782 784 785 787 788 789 790 791 792 794 796 798 799 801 802 803 804 805 806 807 808 809 810
736 739 742 745 747 750 753 756 760 763 766 768 769 770 772 773 775 776 777 778 780 781 782 783 784 785 787 788 790 792 794 796 798 799 799 800 801 802 803 804 805 806
732 734 737 740 743 746 750 754 757 759 761 763 764 766 768 769 770 771 773 774 775 776 777 778 779 781 783 784 786 788 790 793 794 795 796 796 797 799 800 801 802 802
727 730 733 736 739 743 746 750 752 754 756 759 761 763 765 765 766 767 769 770 771 772 773 774 775 776 778 780 782 784 787 789 791 792 792 793 794 795 796 797 797 798
723 726 729 732 735 739 742 744 747 749 752 755 757 759 760 760 762 763 764 765 766 768 769 770 770 772 774 776 777 780 783 785 787 789 790 790 791 792 792 792 793 794
719 722 725 728 732 735 737 739 742 744 746 750 752 754 756 757 758 759 760 761 763 764 765 765 766 768 770 772 774 777 780 783 784 785 786 786 787 788 788 788 789 790
715 718 721 724 727 729 732 734 737 739 742 745 748 750 752 753 754 755 756 758 759 760 761 761 763 765 767 769 771 774 777 779 781 781 782 782 782 783 784 784 785 786
711 714 716 719 722 724 727 729 732 735 737 740 743 744 746 747 749 751 753 754 755 756 757 758 760 762 765 767 769 772 774 775 776 777 777 777 778 779 779 780 781 782
705 708 711 714 716 719 722 724 727 730 732 735 737 739 741 743 745 747 748 749 751 752 754 756 758 760 762 764 766 768 770 771 772 773 773 773 774 774 775 776 777 778
701 703 706 708 711 714 717 720 722 725 728 731 733 735 737 739 741 742 743 744 746 748 750 752 754 756 758 760 762 764 765 766 768 768 768 769 770 770 770 771 773 773
Wind_Speed
41 40 39 38 36 36 37 37 36 35 35 34 34 34 34 33 31 30 28 27 27 27 26 25 24 24 24 22 19 19 20 21 21 20 19 18 19 19 19 17 17 17
41 40 39 38 36 34 35 36 36 36 36 35 35 35 34 32 31 30 29 28 28 28 28 27 25 25 25 24 22 21 21 22 22 22 21 20 19 19 20 19 18 19
40 40 39 38 37 36 35 35 36 36 36 35 35 34 33 33 31 31 30 29 29 29 29 28 27 26 25 25 24 24 23 23 24 23 23 22 21 20 20 20 19 20
40 40 40 40 39 39 37 35 35 36 35 35 35 34 33 32 32 31 31 30 30 29 30 30 29 27 26 26 26 27 26 25 25 25 25 25 23 22 22 21 20 21
41 40 40 40 39 38 37 36 36 36 36 36 35 35 33 32 32 32 32 31 31 30 30 30 30 29 28 27 28 29 28 27 26 26 27 27 25 24 23 22 22 22
39 40 39 39 38 37 37 37 38 37 37 37 36 35 34 33 32 32 32 32 32 32 31 31 31 31 30 30 30 30 30 29 29 28 28 29 28 26 25 25 25 24
39 40 39 38 36 36 36 37 37 38 38 37 36 36 35 34 33 33 33 33 33 33 33 32 32 33 32 32 33 33 32 31 31 30 30 31 30 28 27 27 27 27
40 39 39 37 36 35 36 36 36 37 37 36 36 36 36 35 35 34 34 34 34 35 35 34 34 34 34 34 35 35 34 33 33 32 32 32 32 31 31 30 30 30
39 39 38 38 37 36 37 36 36 36 35 35 36 36 36 37 37 37 36 35 35 36 36 36 36 36 36 37 37 36 36 35 34 34 34 34 34 34 34 33 32 32
40 39 38 38 38 38 38 37 37 36 35 35 36 35 36 37 38 37 37 37 37 37 38 38 38 38 38 38 38 38 37 37 36 36 36 37 37 37 36 35 35 35
40 40 39 39 39 38 38 38 38 37 36 37 36 36 36 37 37 37 38 39 40 40 40 40 40 40 39 39 40 39 39 39 38 37 38 38 39 39 38 38 37 38
41 40 40 40 40 39 38 38 38 38 38 38 38 38 37 36 37 38 39 40 42 42 41 41 41 40 40 40 40 40 40 40 39 39 39 39 40 40 40 39 39 39
40 41 41 40 40 40 39 39 39 39 38 39 39 39 38 37 38 39 40 41 42 42 42 42 41 41 41 41 41 40 40 40 40 40 40 40 40 40 40 40 40 40
40 40 41 40 40 40 40 39 39 39 39 39 39 39 39 40 40 40 41 41 42 42 42 42 41 41 41 41 41 41 40 40 40 40 40 40 40 40 40 39 39 39
39 38 38 39 38 38 39 40 39 39 39 39 39 39 40 41 41 40 40 41 42 42 42 41 41 41 42 42 42 42 41 41 41 41 40 40 40 40 40 40 39 38
38 37 36 37 37 38 39 39 39 39 39 39 39 40 40 41 40 40 40 41 41 41 41 41 41 42 43 44 45 44 43 42 41 40 40 39 39 39 39 39 39 39
37 36 36 36 37 38 39 39 40 39 38 39 39 40 40 40 40 40 41 41 41 41 41 41 42 43 44 45 46 46 44 42 40 40 39 39 38 38 38 39 39 39
37 36 36 36 37 38 39 39 38 38 38 38 39 40 40 40 40 41 42 41 40 40 41 42 43 44 45 46 47 47 46 43 41 40 39 39 39 38 38 38 38 38
37 36 36 37 37 38 38 37 37 38 39 39 39 40 40 40 41 41 41 41 41 40 41 42 43 44 45 46 46 47 47 45 43 41 39 39 39 38 38 38 38 37
37 37 37 37 38 38 37 37 38 39 39 39 39 39 39 40 40 41 41 42 42 41 41 42 43 44 45 46 46 46 46 46 45 42 40 39 39 38 38 38 39 38
37 36 36 37 37 38 37 38 39 39 39 39 39 39 40 40 40 40 41 42 42 42 42 41 42 44 44 45 47 46 46 46 46 44 41 39 39 39 39 39 39 39
36 36 36 37 37 37 37 38 39 40 40 40 39 38 39 39 40 40 40 41 41 41 41 42 42 43 43 45 46 46 45 44 45 44 42 41 40 39 39 39 39 39
37 37 36 37 37 37 38 38 39 40 40 39 38 38 37 38 39 39 39 40 39 40 41 41 42 41 41 43 43 43 43 44 44 44 43 42 41 40 40 40 39 40
39 39 38 38 38 38 38 38 39 39 39 39 39 39 39 40 39 38 38 38 38 39 40 39 39 38 38 39 39 40 41 43 44 43 42 42 42 41 41 40 39 40
40 41 40 39 39 39 39 39 39 40 39 39 40 40 40 40 38 37 37 38 38 38 38 37 36 35 34 34 35 36 39 41 43 42 41 40 40 40 40 40 39 39
39 41 42 41 41 40 39 39 40 39 38 38 38 38 38 37 37 37 37 37 37 37 37 36 36 34 33 32 32 33 35 39 42 42 40 39 39 39 38 38 38 38
Wind_Direction
204 204 204 204 205 205 205 204 205 206 209 212 214 218 220 221 222 221 221 220 221 223 223 225 226 227 228 226 223 219 219 220 221 223 226 225 223 220 218 216 218 221
205 205 206 206 206 207 206 206 206 207 210 214 217 219 221 222 222 222 222 221 221 223 225 226 228 228 228 227 224 220 220 222 224 224 225 224 223 222 222 220 217 216
206 207 207 207 208 208 208 208 208 209 212 215 218 219 221 222 222 223 223 222 223 224 225 226 228 228 228 226 225 223 221 223 225 225 224 224 226 226 225 224 222 217
207 208 208 209 209 210 210 209 209 210 211 214 216 218 220 222 222 223 223 223 223 224 225 226 227 228 228 226 223 223 224 226 227 226 225 224 226 229 225 223 225 222
207 208 209 210 210 210 210 210 211 211 212 213 215 218 220 221 221 221 221 222 223 225 226 226 226 228 228 225 222 223 224 226 226 225 225 225 226 227 226 223 225 227
208 209 211 211 211 210 209 210 211 212 213 214 215 217 220 221 221 220 220 221 222 224 225 226 226 227 227 225 223 224 224 224 224 224 225 226 226 226 225 224 226 229
208 210 211 212 212 212 212 212 212 212 213 214 214 215 217 218 219 220 221 221 221 222 224 225 226 226 226 225 224 225 225 224 223 223 224 226 226 225 224 224 226 229
209 209 210 211 212 214 215 215 214 213 213 213 213 214 214 216 218 220 221 221 221 222 223 225 226 226 225 225 224 224 224 224 223 223 224 224 225 226 225 225 226 228
209 209 210 210 212 214 216 217 217 216 214 213 213 214 214 216 218 219 220 221 221 222 224 225 225 225 224 223 224 224 224 224 223 223 223 223 223 225 226 225 225 227
208 209 209 210 211 213 215 217 218 218 217 215 214 214 214 216 217 218 219 220 222 223 224 225 225 224 224 223 223 224 224 225 224 224 224 223 224 226 226 226 225 227
208 208 209 209 211 213 215 217 218 218 218 217 216 215 215 216 216 217 218 220 222 223 224 225 225 224 223 223 223 224 224 225 226 226 225 225 226 227 227 226 226 228
207 208 208 210 211 213 214 216 217 218 218 218 217 216 216 216 216 216 218 219 221 223 224 225 225 224 224 224 223 223 224 225 226 227 227 227 227 228 228 228 228 230
208 208 208 210 211 213 214 216 217 217 218 218 218 217 216 216 216 217 218 220 222 223 224 224 224 224 224 224 224 223 224 224 225 226 227 229 229 230 230 230 230 231
210 209 209 210 212 213 215 216 216 217 218 218 218 217 217 217 218 218 219 220 222 223 224 224 224 223 224 224 224 224 224 225 226 226 227 228 230 232 232 232 232 233
211 210 210 210 212 214 215 216 217 217 218 218 218 218 218 219 219 220 220 221 223 223 224 224 224 224 224 224 224 224 224 226 227 227 227 228 230 232 233 234 234 234
210 210 210 210 211 214 216 216 217 217 218 218 219 219 220 220 220 221 221 222 223 223 224 224 224 225 225 226 226 225 225 226 227 228 228 228 229 231 233 235 235 236
208 209 210 211 212 214 216 217 217 217 218 218 219 220 220 220 220 221 222 223 223 224 224 224 224 226 226 227 228 228 226 225 227 229 229 229 230 230 232 235 236 237
208 208 209 211 212 214 215 217 217 217 217 218 219 220 221 220 220 221 222 223 224 224 225 225 226 227 227 228 229 229 228 227 227 229 230 231 231 232 233 234 236 237
207 208 209 210 212 214 215 216 216 217 217 218 219 220 221 221 221 221 222 223 223 225 226 226 228 229 229 229 230 231 230 229 228 230 231 233 233 234 235 235 236 237
207 207 208 210 212 213 214 214 215 217 218 218 220 220 221 222 223 223 223 223 224 225 226 228 229 230 230 231 231 232 231 230 230 231 232 234 235 235 236 237 237 237
206 206 207 209 211 211 212 213 214 216 217 218 219 220 221 223 224 224 224 225 225 226 227 229 231 231 232 232 233 233 233 231 231 231 233 235 237 237 238 239 239 239
205 205 206 208 210 210 210 211 213 215 216 216 218 220 222 224 226 226 226 226 226 226 227 230 232 233 233 233 234 234 233 232 231 231 233 235 237 238 239 240 241 241
205 205 206 207 208 208 209 211 212 214 215 215 216 219 221 224 226 227 228 229 228 228 228 230 232 234 234 234 235 234 232 231 230 230 232 235 238 239 240 241 242 242
205 205 206 207 207 208 210 211 212 214 215 214 215 217 220 223 225 227 229 231 231 230 230 231 232 234 234 235 235 235 233 231 230 230 232 235 238 240 241 242 243 243
205 205 206 207 208 210 210 211 212 214 215 214 215 216 219 222 223 226 229 231 232 233 233 234 234 234 234 234 234 234 233 232 230 230 232 235 237 240 242 243 244 245
205 205 205 207 209 211 211 211 213 213 213 214 215 217 219 221 222 224 227 229 231 233 234 234 234 234 234 234 233 232 232 231 229 228 230 233 236 239 241 243 244 245